Location: Bois de la Silve
(44.4667°N, 6.7833°E)
Time: 04:38:02
(UTC+00:00)

Cosmos 1697 Rocket - Pass Details

Date: 14 July 2020
Orbit: 834 x 842 km, 71.0° (Epoch: 06 August)

Event Time Altitude Azimuth Distance (km) Brightness Sun altitude
Rises 02:09:03 0° 330° (NNW) 3,396 6.2 -15.5°
Reaches altitude 10° 02:11:33 10° 326° (NW) 2,456 5.4 -15.3°
Maximum altitude 02:16:59 52° 251° (WSW) 1,027 2.8 -14.7°
Enters shadow 02:22:18 10° 176° (S) 2,405 4.6 -14.1°
